owner,sensor,date,latitude,longitude,vertical_datum,sea_water_practical_salinity,qcFlag 
DISL,ioos:station:DISL:DISL:1,2011-09-01T00:00:00Z,30.2513,-88.0778,6.612,28.44,1111122 
DISL,ioos:station:DISL:DISL:1,2011-09-01T00:30:00Z,30.2513,-88.0778,6.809,29.18,1111122 
DISL,ioos:station:DISL:DISL:1,2011-09-01T01:00:00Z,30.2513,-88.0778,6.809,29.48,1111122 
DISL,ioos:station:DISL:DISL:1,2011-09-01T01:30:00Z,30.2513,-88.0778,7.02,29.62,1111122 
DISL,ioos:station:DISL:DISL:1,2011-09-01T02:00:00Z,30.2513,-88.0778,7.04,29.88,1111122 
DISL,ioos:station:DISL:DISL:1,2011-09-01T02:30:00Z,30.2513,-88.0778,6.964,30.01,1111122 
DISL,ioos:station:DISL:DISL:1,2011-09-01T03:00:00Z,30.2513,-88.0778,7.16,30.07,1111122 
DISL,ioos:station:DISL:DISL:1,2011-09-01T03:30:00Z,30.2513,-88.0778,7.23,29.63,1111122 
DISL,ioos:station:DISL:DISL:1,2011-09-01T04:00:00Z,30.2513,-88.0778,7.13,29.43,1111122 
DISL,ioos:station:DISL:DISL:1,2011-09-01T04:30:00Z,30.2513,-88.0778,7.23,29.51,1111122 
DISL,ioos:station:DISL:DISL:1,2011-09-01T05:00:00Z,30.2513,-88.0778,7.24,29.98,1111122 
DISL,ioos:station:DISL:DISL:1,2011-09-01T05:30:00Z,30.2513,-88.0778,7.27,30.41,1111122 
DISL,ioos:station:DISL:DISL:1,2011-09-01T06:00:00Z,30.2513,-88.0778,7.26,30.78,1111122 
DISL,ioos:station:DISL:DISL:1,2011-09-01T06:30:00Z,30.2513,-88.0778,7.28,30.64,1111122 
DISL,ioos:station:DISL:DISL:1,2011-09-01T07:00:00Z,30.2513,-88.0778,7.22,30.55,1111122 
DISL,ioos:station:DISL:DISL:1,2011-09-01T07:30:00Z,30.2513,-88.0778,7.36,30.58,1111122 
DISL,ioos:station:DISL:DISL:1,2011-09-01T08:00:00Z,30.2513,-88.0778,7.34,30.25,1111122 
DISL,ioos:station:DISL:DISL:1,2011-09-01T08:30:00Z,30.2513,-88.0778,7.36,30.29,1111122 
DISL,ioos:station:DISL:DISL:1,2011-09-01T09:00:00Z,30.2513,-88.0778,7.32,30.08,1111122 
DISL,ioos:station:DISL:DISL:1,2011-09-01T09:30:00Z,30.2513,-88.0778,7.23,30.11,1111122 
DISL,ioos:station:DISL:DISL:1,2011-09-01T10:00:00Z,30.2513,-88.0778,7.26,30.14,1111122 
DISL,ioos:station:DISL:DISL:1,2011-09-01T10:30:00Z,30.2513,-88.0778,7.05,29.49,1111122 
DISL,ioos:station:DISL:DISL:1,2011-09-01T11:00:00Z,30.2513,-88.0778,7.32,30.23,1111122 
DISL,ioos:station:DISL:DISL:1,2011-09-01T11:30:00Z,30.2513,-88.0778,6.987,30.59,1111122 
DISL,ioos:station:DISL:DISL:1,2011-09-01T12:00:00Z,30.2513,-88.0778,7.15,30.71,1111122 
DISL,ioos:station:DISL:DISL:1,2011-09-01T12:30:00Z,30.2513,-88.0778,6.759,30.65,1111122 
DISL,ioos:station:DISL:DISL:1,2011-09-01T13:00:00Z,30.2513,-88.0778,6.715,30.5,1111122 
DISL,ioos:station:DISL:DISL:1,2011-09-01T13:30:00Z,30.2513,-88.0778,6.612,30.59,1111122 
DISL,ioos:station:DISL:DISL:1,2011-09-01T14:00:00Z,30.2513,-88.0778,6.786,30.52,1111122 
DISL,ioos:station:DISL:DISL:1,2011-09-01T14:30:00Z,30.2513,-88.0778,6.673,30.62,1111122 
DISL,ioos:station:DISL:DISL:1,2011-09-01T15:00:00Z,30.2513,-88.0778,6.817,30.75,1111122 
DISL,ioos:station:DISL:DISL:1,2011-09-01T15:30:00Z,30.2513,-88.0778,6.879,30.87,1111122 
DISL,ioos:station:DISL:DISL:1,2011-09-01T16:00:00Z,30.2513,-88.0778,6.701,30.94,1111122 
DISL,ioos:station:DISL:DISL:1,2011-09-01T16:30:00Z,30.2513,-88.0778,6.478,30.95,1111122 
DISL,ioos:station:DISL:DISL:1,2011-09-01T17:00:00Z,30.2513,-88.0778,6.729,31.09,1111122 
DISL,ioos:station:DISL:DISL:1,2011-09-01T17:30:00Z,30.2513,-88.0778,6.633,31.06,1111122 
DISL,ioos:station:DISL:DISL:1,2011-09-01T18:00:00Z,30.2513,-88.0778,6.639,31.16,1111122 
DISL,ioos:station:DISL:DISL:1,2011-09-01T18:30:00Z,30.2513,-88.0778,6.721,31.27,1111122 
DISL,ioos:station:DISL:DISL:1,2011-09-01T19:00:00Z,30.2513,-88.0778,6.675,31.26,1111122 
DISL,ioos:station:DISL:DISL:1,2011-09-01T19:30:00Z,30.2513,-88.0778,6.743,31.33,1111122 
DISL,ioos:station:DISL:DISL:1,2011-09-01T20:00:00Z,30.2513,-88.0778,6.674,31.39,1111122 
DISL,ioos:station:DISL:DISL:1,2011-09-01T20:30:00Z,30.2513,-88.0778,6.709,31.19,1111122 
DISL,ioos:station:DISL:DISL:1,2011-09-01T21:00:00Z,30.2513,-88.0778,6.675,31.06,1111122 
DISL,ioos:station:DISL:DISL:1,2011-09-01T21:30:00Z,30.2513,-88.0778,6.74,31.04,1111122 
DISL,ioos:station:DISL:DISL:1,2011-09-01T22:00:00Z,30.2513,-88.0778,6.752,30.78,1111122 
DISL,ioos:station:DISL:DISL:1,2011-09-01T22:30:00Z,30.2513,-88.0778,6.791,30.41,1111122 
DISL,ioos:station:DISL:DISL:1,2011-09-01T23:00:00Z,30.2513,-88.0778,6.78,29.87,1111122 
DISL,ioos:station:DISL:DISL:1,2011-09-01T23:30:00Z,30.2513,-88.0778,6.767,29.67,1111122 
DISL,ioos:station:DISL:DISL:1,2011-09-02T00:00:00Z,30.2513,-88.0778,6.959,29.72,1111122 
DISL,ioos:station:DISL:DISL:1,2011-09-02T00:30:00Z,30.2513,-88.0778,7.28,29.4,1111122 
DISL,ioos:station:DISL:DISL:1,2011-09-02T01:00:00Z,30.2513,-88.0778,7.14,28.92,1111122 
DISL,ioos:station:DISL:DISL:1,2011-09-02T01:30:00Z,30.2513,-88.0778,7.1,28.88,1111122 
DISL,ioos:station:DISL:DISL:1,2011-09-02T02:00:00Z,30.2513,-88.0778,7.24,28.98,1111122 
DISL,ioos:station:DISL:DISL:1,2011-09-02T02:30:00Z,30.2513,-88.0778,7.36,29.2,1111122 
DISL,ioos:station:DISL:DISL:1,2011-09-02T03:00:00Z,30.2513,-88.0778,7.41,29.67,1111122 
DISL,ioos:station:DISL:DISL:1,2011-09-02T03:30:00Z,30.2513,-88.0778,7.61,29.8,1111122 
DISL,ioos:station:DISL:DISL:1,2011-09-02T04:00:00Z,30.2513,-88.0778,7.4,30.03,1111122 
DISL,ioos:station:DISL:DISL:1,2011-09-02T04:30:00Z,30.2513,-88.0778,7.65,30.18,1111122 
DISL,ioos:station:DISL:DISL:1,2011-09-02T05:00:00Z,30.2513,-88.0778,7.62,30.43,1111122 
DISL,ioos:station:DISL:DISL:1,2011-09-02T05:30:00Z,30.2513,-88.0778,7.83,30.43,1111122 
DISL,ioos:station:DISL:DISL:1,2011-09-02T06:00:00Z,30.2513,-88.0778,7.74,30.4,1111122 
DISL,ioos:station:DISL:DISL:1,2011-09-02T06:30:00Z,30.2513,-88.0778,7.73,30.37,1111122 
DISL,ioos:station:DISL:DISL:1,2011-09-02T07:00:00Z,30.2513,-88.0778,7.72,30.44,1111122 
DISL,ioos:station:DISL:DISL:1,2011-09-02T07:30:00Z,30.2513,-88.0778,7.86,30.39,1111122 
DISL,ioos:station:DISL:DISL:1,2011-09-02T08:00:00Z,30.2513,-88.0778,7.72,30.48,1111122 
DISL,ioos:station:DISL:DISL:1,2011-09-02T08:30:00Z,30.2513,-88.0778,7.79,30.47,1111122 
DISL,ioos:station:DISL:DISL:1,2011-09-02T09:00:00Z,30.2513,-88.0778,7.57,30.48,1111122 
DISL,ioos:station:DISL:DISL:1,2011-09-02T09:30:00Z,30.2513,-88.0778,7.77,30.45,1111122 
DISL,ioos:station:DISL:DISL:1,2011-09-02T10:00:00Z,30.2513,-88.0778,7.53,30.48,1111122 
DISL,ioos:station:DISL:DISL:1,2011-09-02T10:30:00Z,30.2513,-88.0778,7.59,30.24,1111122 
DISL,ioos:station:DISL:DISL:1,2011-09-02T11:00:00Z,30.2513,-88.0778,7.49,30.17,1111122 
DISL,ioos:station:DISL:DISL:1,2011-09-02T11:30:00Z,30.2513,-88.0778,7.53,30.34,1111122 
DISL,ioos:station:DISL:DISL:1,2011-09-02T12:00:00Z,30.2513,-88.0778,7.44,30.19,1111122 
DISL,ioos:station:DISL:DISL:1,2011-09-02T12:30:00Z,30.2513,-88.0778,7.3,30.19,1111122 
DISL,ioos:station:DISL:DISL:1,2011-09-02T13:00:00Z,30.2513,-88.0778,7.29,30.31,1111122 
DISL,ioos:station:DISL:DISL:1,2011-09-02T13:30:00Z,30.2513,-88.0778,7.19,30.52,1111122 
DISL,ioos:station:DISL:DISL:1,2011-09-02T14:00:00Z,30.2513,-88.0778,6.971,30.55,1111122 
DISL,ioos:station:DISL:DISL:1,2011-09-02T14:30:00Z,30.2513,-88.0778,6.787,30.5,1111122 
DISL,ioos:station:DISL:DISL:1,2011-09-02T15:00:00Z,30.2513,-88.0778,6.733,30.4,1111122 
DISL,ioos:station:DISL:DISL:1,2011-09-02T15:30:00Z,30.2513,-88.0778,6.985,30.36,1111122 
DISL,ioos:station:DISL:DISL:1,2011-09-02T16:00:00Z,30.2513,-88.0778,6.816,30.29,1111122 
DISL,ioos:station:DISL:DISL:1,2011-09-02T16:30:00Z,30.2513,-88.0778,6.92,30.32,1111122 
DISL,ioos:station:DISL:DISL:1,2011-09-02T17:00:00Z,30.2513,-88.0778,7.02,30.37,1111122 
DISL,ioos:station:DISL:DISL:1,2011-09-02T17:30:00Z,30.2513,-88.0778,6.967,30.36,1111122 
DISL,ioos:station:DISL:DISL:1,2011-09-02T18:00:00Z,30.2513,-88.0778,6.591,30.33,1111122 
DISL,ioos:station:DISL:DISL:1,2011-09-02T18:30:00Z,30.2513,-88.0778,6.653,30.3,1111122 
DISL,ioos:station:DISL:DISL:1,2011-09-02T19:00:00Z,30.2513,-88.0778,6.671,30.28,1111122 
DISL,ioos:station:DISL:DISL:1,2011-09-02T19:30:00Z,30.2513,-88.0778,6.384,30.22,1111122 
DISL,ioos:station:DISL:DISL:1,2011-09-02T20:00:00Z,30.2513,-88.0778,6.651,30.19,1111122 
DISL,ioos:station:DISL:DISL:1,2011-09-02T20:30:00Z,30.2513,-88.0778,6.79,30.12,1111122 
DISL,ioos:station:DISL:DISL:1,2011-09-02T21:00:00Z,30.2513,-88.0778,6.533,30.25,1111122 
DISL,ioos:station:DISL:DISL:1,2011-09-02T21:30:00Z,30.2513,-88.0778,6.737,30.22,1111122 
DISL,ioos:station:DISL:DISL:1,2011-09-02T22:00:00Z,30.2513,-88.0778,6.858,30.2,1111122 
DISL,ioos:station:DISL:DISL:1,2011-09-02T22:30:00Z,30.2513,-88.0778,6.709,30.17,1111122 
DISL,ioos:station:DISL:DISL:1,2011-09-02T23:00:00Z,30.2513,-88.0778,7.21,30.12,1111122 
DISL,ioos:station:DISL:DISL:1,2011-09-02T23:30:00Z,30.2513,-88.0778,6.873,30.14,1111122 
DISL,ioos:station:DISL:DISL:1,2011-09-03T00:00:00Z,30.2513,-88.0778,6.895,30.11,1111122 
DISL,ioos:station:DISL:DISL:1,2011-09-03T00:30:00Z,30.2513,-88.0778,7.07,30.08,1111122 
DISL,ioos:station:DISL:DISL:1,2011-09-03T01:00:00Z,30.2513,-88.0778,7.07,30.09,1111122 
DISL,ioos:station:DISL:DISL:1,2011-09-03T01:30:00Z,30.2513,-88.0778,7.29,30.01,1111122 
DISL,ioos:station:DISL:DISL:1,2011-09-03T02:00:00Z,30.2513,-88.0778,7.43,29.88,1111122 
DISL,ioos:station:DISL:DISL:1,2011-09-03T02:30:00Z,30.2513,-88.0778,7.54,29.79,1111122 
DISL,ioos:station:DISL:DISL:1,2011-09-03T03:00:00Z,30.2513,-88.0778,7.58,29.69,1111122 
DISL,ioos:station:DISL:DISL:1,2011-09-03T03:30:00Z,30.2513,-88.0778,7.58,29.68,1111122 
DISL,ioos:station:DISL:DISL:1,2011-09-03T04:00:00Z,30.2513,-88.0778,7.88,29.77,1111122 
DISL,ioos:station:DISL:DISL:1,2011-09-03T04:30:00Z,30.2513,-88.0778,7.82,29.72,1111122 
DISL,ioos:station:DISL:DISL:1,2011-09-03T05:00:00Z,30.2513,-88.0778,8.35,29.75,1111122 
DISL,ioos:station:DISL:DISL:1,2011-09-03T05:30:00Z,30.2513,-88.0778,8.2,29.86,1111122 
DISL,ioos:station:DISL:DISL:1,2011-09-03T06:00:00Z,30.2513,-88.0778,8.36,30.18,1111122 
DISL,ioos:station:DISL:DISL:1,2011-09-03T06:30:00Z,30.2513,-88.0778,8.32,30.62,1111122 
DISL,ioos:station:DISL:DISL:1,2011-09-03T07:00:00Z,30.2513,-88.0778,8.31,30.63,1111122 
DISL,ioos:station:DISL:DISL:1,2011-09-03T07:30:00Z,30.2513,-88.0778,8.41,30.54,1111122 
DISL,ioos:station:DISL:DISL:1,2011-09-03T08:00:00Z,30.2513,-88.0778,8.52,30.69,1111122 
DISL,ioos:station:DISL:DISL:1,2011-09-03T08:30:00Z,30.2513,-88.0778,8.47,30.95,1111122 
DISL,ioos:station:DISL:DISL:1,2011-09-03T09:00:00Z,30.2513,-88.0778,8.28,30.93,1111122 
DISL,ioos:station:DISL:DISL:1,2011-09-03T09:30:00Z,30.2513,-88.0778,8.29,30.49,1111122 
DISL,ioos:station:DISL:DISL:1,2011-09-03T10:00:00Z,30.2513,-88.0778,8.51,30.29,1111122 
DISL,ioos:station:DISL:DISL:1,2011-09-03T10:30:00Z,30.2513,-88.0778,8.36,30.08,1111122 
DISL,ioos:station:DISL:DISL:1,2011-09-03T11:00:00Z,30.2513,-88.0778,8.3,30.66,1111122 
DISL,ioos:station:DISL:DISL:1,2011-09-03T11:30:00Z,30.2513,-88.0778,8.43,30.5,1111122 
DISL,ioos:station:DISL:DISL:1,2011-09-03T12:00:00Z,30.2513,-88.0778,8.21,30.85,1111122 
DISL,ioos:station:DISL:DISL:1,2011-09-03T12:30:00Z,30.2513,-88.0778,7.8,30.77,1111122 
DISL,ioos:station:DISL:DISL:1,2011-09-03T13:00:00Z,30.2513,-88.0778,8.01,30.74,1111122 
DISL,ioos:station:DISL:DISL:1,2011-09-03T13:30:00Z,30.2513,-88.0778,7.76,30.71,1111122 
DISL,ioos:station:DISL:DISL:1,2011-09-03T14:00:00Z,30.2513,-88.0778,7.61,30.04,1111122 
DISL,ioos:station:DISL:DISL:1,2011-09-03T14:30:00Z,30.2513,-88.0778,7.84,29.82,1111122 
DISL,ioos:station:DISL:DISL:1,2011-09-03T15:00:00Z,30.2513,-88.0778,7.55,29.8,1111122 
DISL,ioos:station:DISL:DISL:1,2011-09-03T15:30:00Z,30.2513,-88.0778,7.18,29.69,1111122 
DISL,ioos:station:DISL:DISL:1,2011-09-03T16:00:00Z,30.2513,-88.0778,7.26,29.61,1111122 
DISL,ioos:station:DISL:DISL:1,2011-09-03T16:30:00Z,30.2513,-88.0778,7.4,29.6,1111122 
DISL,ioos:station:DISL:DISL:1,2011-09-03T17:00:00Z,30.2513,-88.0778,7.48,29.71,1111122 
DISL,ioos:station:DISL:DISL:1,2011-09-03T17:30:00Z,30.2513,-88.0778,7.71,29.97,1111122 
DISL,ioos:station:DISL:DISL:1,2011-09-03T18:00:00Z,30.2513,-88.0778,7.53,29.85,1111122 
DISL,ioos:station:DISL:DISL:1,2011-09-03T18:30:00Z,30.2513,-88.0778,7.25,30.04,1111122 
DISL,ioos:station:DISL:DISL:1,2011-09-03T19:00:00Z,30.2513,-88.0778,7.21,29.91,1111122 
DISL,ioos:station:DISL:DISL:1,2011-09-03T19:30:00Z,30.2513,-88.0778,7.36,29.59,1111122 
DISL,ioos:station:DISL:DISL:1,2011-09-03T20:00:00Z,30.2513,-88.0778,7.06,29.72,1111122 
DISL,ioos:station:DISL:DISL:1,2011-09-03T20:30:00Z,30.2513,-88.0778,7.25,30.14,1111122 
DISL,ioos:station:DISL:DISL:1,2011-09-03T21:00:00Z,30.2513,-88.0778,7.52,29.7,1111122 
DISL,ioos:station:DISL:DISL:1,2011-09-03T21:30:00Z,30.2513,-88.0778,7.16,29.7,1111122 
DISL,ioos:station:DISL:DISL:1,2011-09-03T22:00:00Z,30.2513,-88.0778,7.64,30.03,1111122 
DISL,ioos:station:DISL:DISL:1,2011-09-03T22:30:00Z,30.2513,-88.0778,7.44,29.73,1111122 
DISL,ioos:station:DISL:DISL:1,2011-09-03T23:00:00Z,30.2513,-88.0778,7.47,29.55,1111122 
DISL,ioos:station:DISL:DISL:1,2011-09-03T23:30:00Z,30.2513,-88.0778,7.6,29.54,1111122 
DISL,ioos:station:DISL:DISL:1,2011-09-04T00:00:00Z,30.2513,-88.0778,7.7,29.46,1111122 
DISL,ioos:station:DISL:DISL:1,2011-09-04T00:30:00Z,30.2513,-88.0778,7.83,29.24,1111122 
DISL,ioos:station:DISL:DISL:1,2011-09-04T01:00:00Z,30.2513,-88.0778,7.7,29.22,1111122 
DISL,ioos:station:DISL:DISL:1,2011-09-04T01:30:00Z,30.2513,-88.0778,8.13,29.2,1111122 
DISL,ioos:station:DISL:DISL:1,2011-09-04T02:00:00Z,30.2513,-88.0778,8.27,30.28,1111122 
DISL,ioos:station:DISL:DISL:1,2011-09-04T02:30:00Z,30.2513,-88.0778,8.08,29.99,1111122 
DISL,ioos:station:DISL:DISL:1,2011-09-04T03:00:00Z,30.2513,-88.0778,8.17,29.67,1111122 
DISL,ioos:station:DISL:DISL:1,2011-09-04T03:30:00Z,30.2513,-88.0778,8.15,30.39,1111122 
DISL,ioos:station:DISL:DISL:1,2011-09-04T04:00:00Z,30.2513,-88.0778,8.33,30.67,1111122 
DISL,ioos:station:DISL:DISL:1,2011-09-04T04:30:00Z,30.2513,-88.0778,8.11,31.25,1111122 
DISL,ioos:station:DISL:DISL:1,2011-09-04T05:00:00Z,30.2513,-88.0778,8.19,31.27,1111122 
DISL,ioos:station:DISL:DISL:1,2011-09-04T05:30:00Z,30.2513,-88.0778,8.53,32.37,1111122 
DISL,ioos:station:DISL:DISL:1,2011-09-04T06:00:00Z,30.2513,-88.0778,8.62,32.66,1111122 
DISL,ioos:station:DISL:DISL:1,2011-09-04T06:30:00Z,30.2513,-88.0778,8.51,32.79,1111122 
DISL,ioos:station:DISL:DISL:1,2011-09-04T07:00:00Z,30.2513,-88.0778,8.48,32.7,1111122 
DISL,ioos:station:DISL:DISL:1,2011-09-04T07:30:00Z,30.2513,-88.0778,8.67,32.67,1111122 
DISL,ioos:station:DISL:DISL:1,2011-09-04T08:00:00Z,30.2513,-88.0778,8.74,32.64,1111122 
DISL,ioos:station:DISL:DISL:1,2011-09-04T08:30:00Z,30.2513,-88.0778,8.73,32.33,1111122 
DISL,ioos:station:DISL:DISL:1,2011-09-04T09:00:00Z,30.2513,-88.0778,8.93,31.13,1111122 
DISL,ioos:station:DISL:DISL:1,2011-09-04T09:30:00Z,30.2513,-88.0778,8.78,30.66,1111122 
DISL,ioos:station:DISL:DISL:1,2011-09-04T10:00:00Z,30.2513,-88.0778,8.69,28.87,1111122 
DISL,ioos:station:DISL:DISL:1,2011-09-04T10:30:00Z,30.2513,-88.0778,8.83,30.69,1111122 
DISL,ioos:station:DISL:DISL:1,2011-09-04T11:00:00Z,30.2513,-88.0778,8.58,32.95,1111122 
DISL,ioos:station:DISL:DISL:1,2011-09-04T11:30:00Z,30.2513,-88.0778,8.51,32.95,1111122 
DISL,ioos:station:DISL:DISL:1,2011-09-04T12:00:00Z,30.2513,-88.0778,8.76,32.5,1111122 
DISL,ioos:station:DISL:DISL:1,2011-09-04T12:30:00Z,30.2513,-88.0778,8.72,31.34,1111122 
DISL,ioos:station:DISL:DISL:1,2011-09-04T13:00:00Z,30.2513,-88.0778,8.45,32.19,1111122 
DISL,ioos:station:DISL:DISL:1,2011-09-04T13:30:00Z,30.2513,-88.0778,8.38,32.16,1111122 
DISL,ioos:station:DISL:DISL:1,2011-09-04T14:00:00Z,30.2513,-88.0778,8.45,32.43,1111122 
DISL,ioos:station:DISL:DISL:1,2011-09-04T14:30:00Z,30.2513,-88.0778,8.18,32.45,1111122 
DISL,ioos:station:DISL:DISL:1,2011-09-04T15:00:00Z,30.2513,-88.0778,8.03,32.13,1111122 
DISL,ioos:station:DISL:DISL:1,2011-09-04T15:30:00Z,30.2513,-88.0778,8.04,31.93,1111122 
DISL,ioos:station:DISL:DISL:1,2011-09-04T16:00:00Z,30.2513,-88.0778,8.11,32.06,1111122 
DISL,ioos:station:DISL:DISL:1,2011-09-04T16:30:00Z,30.2513,-88.0778,7.97,31.71,1111122 
DISL,ioos:station:DISL:DISL:1,2011-09-04T17:00:00Z,30.2513,-88.0778,7.63,31.63,1111122 
DISL,ioos:station:DISL:DISL:1,2011-09-04T17:30:00Z,30.2513,-88.0778,7.47,31.54,1111122 
DISL,ioos:station:DISL:DISL:1,2011-09-04T18:00:00Z,30.2513,-88.0778,7.41,31.44,1111122 
DISL,ioos:station:DISL:DISL:1,2011-09-04T18:30:00Z,30.2513,-88.0778,7.51,31.43,1111122 
DISL,ioos:station:DISL:DISL:1,2011-09-04T19:00:00Z,30.2513,-88.0778,7.4,31.4,1111122 
DISL,ioos:station:DISL:DISL:1,2011-09-04T19:30:00Z,30.2513,-88.0778,7.55,31.42,1111122 
DISL,ioos:station:DISL:DISL:1,2011-09-04T20:00:00Z,30.2513,-88.0778,7.48,31.41,1111122 
DISL,ioos:station:DISL:DISL:1,2011-09-04T20:30:00Z,30.2513,-88.0778,7.45,31.3,1111122 
DISL,ioos:station:DISL:DISL:1,2011-09-04T21:00:00Z,30.2513,-88.0778,7.08,31.31,1111122 
DISL,ioos:station:DISL:DISL:1,2011-09-04T21:30:00Z,30.2513,-88.0778,7.26,31.27,1111122 
DISL,ioos:station:DISL:DISL:1,2011-09-04T22:00:00Z,30.2513,-88.0778,6.601,31.15,1111122 
DISL,ioos:station:DISL:DISL:1,2011-09-04T22:30:00Z,30.2513,-88.0778,7.51,31.23,1111122 
DISL,ioos:station:DISL:DISL:1,2011-09-04T23:00:00Z,30.2513,-88.0778,7.53,31.29,1111122 
DISL,ioos:station:DISL:DISL:1,2011-09-04T23:30:00Z,30.2513,-88.0778,7.46,31.24,1111122 
DISL,ioos:station:DISL:DISL:1,2011-09-05T00:00:00Z,30.2513,-88.0778,7.42,31.28,1111122 
DISL,ioos:station:DISL:DISL:1,2011-09-05T00:30:00Z,30.2513,-88.0778,7.3,31.29,1111122 
DISL,ioos:station:DISL:DISL:1,2011-09-05T01:00:00Z,30.2513,-88.0778,7.42,31.25,1111122 
DISL,ioos:station:DISL:DISL:1,2011-09-05T01:30:00Z,30.2513,-88.0778,7.5,31.33,1111122 
DISL,ioos:station:DISL:DISL:1,2011-09-05T02:00:00Z,30.2513,-88.0778,7.74,31.04,1111122 
DISL,ioos:station:DISL:DISL:1,2011-09-05T02:30:00Z,30.2513,-88.0778,7.66,31.35,1111122 
DISL,ioos:station:DISL:DISL:1,2011-09-05T03:00:00Z,30.2513,-88.0778,7.83,31.55,1111122 
DISL,ioos:station:DISL:DISL:1,2011-09-05T03:30:00Z,30.2513,-88.0778,7.82,31.94,1111122 
DISL,ioos:station:DISL:DISL:1,2011-09-05T04:00:00Z,30.2513,-88.0778,7.92,32.1,1111122 
DISL,ioos:station:DISL:DISL:1,2011-09-05T04:30:00Z,30.2513,-88.0778,8.03,32.26,1111122 
DISL,ioos:station:DISL:DISL:1,2011-09-05T05:00:00Z,30.2513,-88.0778,8.1,32.39,1111122 
DISL,ioos:station:DISL:DISL:1,2011-09-05T05:30:00Z,30.2513,-88.0778,8.06,32.32,1111122 
DISL,ioos:station:DISL:DISL:1,2011-09-05T06:00:00Z,30.2513,-88.0778,8.1,32.19,1111122 
DISL,ioos:station:DISL:DISL:1,2011-09-05T06:30:00Z,30.2513,-88.0778,8.25,32.22,1111122 
DISL,ioos:station:DISL:DISL:1,2011-09-05T07:00:00Z,30.2513,-88.0778,8.24,32.18,1111122 
DISL,ioos:station:DISL:DISL:1,2011-09-05T07:30:00Z,30.2513,-88.0778,8.35,32.01,1111122 
DISL,ioos:station:DISL:DISL:1,2011-09-05T08:00:00Z,30.2513,-88.0778,8.41,31.94,1111122 
DISL,ioos:station:DISL:DISL:1,2011-09-05T08:30:00Z,30.2513,-88.0778,8.55,31.53,1111122 
DISL,ioos:station:DISL:DISL:1,2011-09-05T09:00:00Z,30.2513,-88.0778,8.38,30.81,1111122 
DISL,ioos:station:DISL:DISL:1,2011-09-05T09:30:00Z,30.2513,-88.0778,8.47,30.8,1111122 
DISL,ioos:station:DISL:DISL:1,2011-09-05T10:00:00Z,30.2513,-88.0778,8.32,30.22,1111122 
DISL,ioos:station:DISL:DISL:1,2011-09-05T10:30:00Z,30.2513,-88.0778,8.62,30.16,1111122 
DISL,ioos:station:DISL:DISL:1,2011-09-05T11:00:00Z,30.2513,-88.0778,8.44,31.69,1111122 
DISL,ioos:station:DISL:DISL:1,2011-09-05T11:30:00Z,30.2513,-88.0778,8.6,31.54,1111122 
DISL,ioos:station:DISL:DISL:1,2011-09-05T12:00:00Z,30.2513,-88.0778,8.54,31.9,1111122 
DISL,ioos:station:DISL:DISL:1,2011-09-05T12:30:00Z,30.2513,-88.0778,8.51,31.09,1111122 
DISL,ioos:station:DISL:DISL:1,2011-09-05T13:00:00Z,30.2513,-88.0778,8.65,31.15,1111122 
DISL,ioos:station:DISL:DISL:1,2011-09-05T13:30:00Z,30.2513,-88.0778,8.5,30.6,1111122 
DISL,ioos:station:DISL:DISL:1,2011-09-05T14:00:00Z,30.2513,-88.0778,8.19,29.88,1111122 
DISL,ioos:station:DISL:DISL:1,2011-09-05T14:30:00Z,30.2513,-88.0778,8.02,29.76,1111122 
DISL,ioos:station:DISL:DISL:1,2011-09-05T15:00:00Z,30.2513,-88.0778,8.1,29.75,1111122 
DISL,ioos:station:DISL:DISL:1,2011-09-05T15:30:00Z,30.2513,-88.0778,8.25,30.45,1111122 
DISL,ioos:station:DISL:DISL:1,2011-09-05T16:00:00Z,30.2513,-88.0778,7.84,32.31,1111122 
DISL,ioos:station:DISL:DISL:1,2011-09-05T16:30:00Z,30.2513,-88.0778,7.87,32.32,1111122 
DISL,ioos:station:DISL:DISL:1,2011-09-05T17:00:00Z,30.2513,-88.0778,7.92,30.96,1111122 
DISL,ioos:station:DISL:DISL:1,2011-09-05T17:30:00Z,30.2513,-88.0778,7.62,30.67,1111122 
DISL,ioos:station:DISL:DISL:1,2011-09-05T18:00:00Z,30.2513,-88.0778,7.83,31.33,1111122 
DISL,ioos:station:DISL:DISL:1,2011-09-05T18:30:00Z,30.2513,-88.0778,7.55,29.49,1111122 
DISL,ioos:station:DISL:DISL:1,2011-09-05T19:00:00Z,30.2513,-88.0778,7.72,29.35,1111122 
DISL,ioos:station:DISL:DISL:1,2011-09-05T19:30:00Z,30.2513,-88.0778,7.58,28.81,1111122 
DISL,ioos:station:DISL:DISL:1,2011-09-05T20:00:00Z,30.2513,-88.0778,7.63,28.97,1111122 
DISL,ioos:station:DISL:DISL:1,2011-09-05T20:30:00Z,30.2513,-88.0778,7.58,28.82,1111122 
DISL,ioos:station:DISL:DISL:1,2011-09-05T21:00:00Z,30.2513,-88.0778,7.38,28.87,1111122 
DISL,ioos:station:DISL:DISL:1,2011-09-05T21:30:00Z,30.2513,-88.0778,7.36,29.06,1111122 
DISL,ioos:station:DISL:DISL:1,2011-09-05T22:00:00Z,30.2513,-88.0778,6.802,31.16,1111122 
DISL,ioos:station:DISL:DISL:1,2011-09-05T22:30:00Z,30.2513,-88.0778,7.23,31.7,1111122 
DISL,ioos:station:DISL:DISL:1,2011-09-05T23:00:00Z,30.2513,-88.0778,7.24,31.58,1111122 
DISL,ioos:station:DISL:DISL:1,2011-09-05T23:30:00Z,30.2513,-88.0778,6.932,31.49,1111122 
DISL,ioos:station:DISL:DISL:1,2011-09-06T00:00:00Z,30.2513,-88.0778,6.862,31.42,1111122 
DISL,ioos:station:DISL:DISL:1,2011-09-06T00:30:00Z,30.2513,-88.0778,6.809,31.37,1111122 
DISL,ioos:station:DISL:DISL:1,2011-09-06T01:00:00Z,30.2513,-88.0778,6.529,31.0,1111122 
DISL,ioos:station:DISL:DISL:1,2011-09-06T01:30:00Z,30.2513,-88.0778,6.893,30.98,1111122 
DISL,ioos:station:DISL:DISL:1,2011-09-06T02:00:00Z,30.2513,-88.0778,6.636,30.97,1111122 
DISL,ioos:station:DISL:DISL:1,2011-09-06T02:30:00Z,30.2513,-88.0778,6.458,31.23,1111122 
DISL,ioos:station:DISL:DISL:1,2011-09-06T03:00:00Z,30.2513,-88.0778,6.738,31.2,1111122 
DISL,ioos:station:DISL:DISL:1,2011-09-06T03:30:00Z,30.2513,-88.0778,6.533,31.27,1111122 
DISL,ioos:station:DISL:DISL:1,2011-09-06T04:00:00Z,30.2513,-88.0778,6.605,31.16,1111122 
DISL,ioos:station:DISL:DISL:1,2011-09-06T04:30:00Z,30.2513,-88.0778,6.911,31.17,1111122 
DISL,ioos:station:DISL:DISL:1,2011-09-06T05:00:00Z,30.2513,-88.0778,6.866,31.16,1111122 
DISL,ioos:station:DISL:DISL:1,2011-09-06T05:30:00Z,30.2513,-88.0778,7.06,30.97,1111122 
DISL,ioos:station:DISL:DISL:1,2011-09-06T06:00:00Z,30.2513,-88.0778,6.75,30.57,1111122 
DISL,ioos:station:DISL:DISL:1,2011-09-06T06:30:00Z,30.2513,-88.0778,6.899,30.3,1111122 
DISL,ioos:station:DISL:DISL:1,2011-09-06T07:00:00Z,30.2513,-88.0778,7.09,29.88,1111122 
DISL,ioos:station:DISL:DISL:1,2011-09-06T07:30:00Z,30.2513,-88.0778,7.17,29.76,1111122 
DISL,ioos:station:DISL:DISL:1,2011-09-06T08:00:00Z,30.2513,-88.0778,7.28,29.65,1111122 
DISL,ioos:station:DISL:DISL:1,2011-09-06T08:30:00Z,30.2513,-88.0778,7.36,29.52,1111122 
DISL,ioos:station:DISL:DISL:1,2011-09-06T09:00:00Z,30.2513,-88.0778,7.45,29.39,1111122 
DISL,ioos:station:DISL:DISL:1,2011-09-06T09:30:00Z,30.2513,-88.0778,7.52,29.22,1111122 
DISL,ioos:station:DISL:DISL:1,2011-09-06T10:00:00Z,30.2513,-88.0778,7.59,29.1,1111122 
DISL,ioos:station:DISL:DISL:1,2011-09-06T10:30:00Z,30.2513,-88.0778,7.62,29.11,1111122 
DISL,ioos:station:DISL:DISL:1,2011-09-06T11:00:00Z,30.2513,-88.0778,7.75,29.1,1111122 
DISL,ioos:station:DISL:DISL:1,2011-09-06T11:30:00Z,30.2513,-88.0778,7.87,29.03,1111122 
DISL,ioos:station:DISL:DISL:1,2011-09-06T12:00:00Z,30.2513,-88.0778,7.88,28.97,1111122 
DISL,ioos:station:DISL:DISL:1,2011-09-06T12:30:00Z,30.2513,-88.0778,7.89,28.88,1111122 
DISL,ioos:station:DISL:DISL:1,2011-09-06T13:00:00Z,30.2513,-88.0778,7.97,28.81,1111122 
DISL,ioos:station:DISL:DISL:1,2011-09-06T13:30:00Z,30.2513,-88.0778,7.72,28.8,1111122 
DISL,ioos:station:DISL:DISL:1,2011-09-06T14:00:00Z,30.2513,-88.0778,7.77,28.75,1111122 
DISL,ioos:station:DISL:DISL:1,2011-09-06T14:30:00Z,30.2513,-88.0778,7.69,28.74,1111122 
DISL,ioos:station:DISL:DISL:1,2011-09-06T15:00:00Z,30.2513,-88.0778,7.65,28.73,1111122 